#timestamp,LO_Frequency,Hit,StdDev 
1623290415.3,286047000.4,N
1623290435.1,286047001.0,N
1623290455.8,286047000.3,N
1623290475.7,286047000.5,N
1623290495.5,286046998.4,N
1623290515.3,286046998.4,N
1623290535.2,286047001.1,N
1623290555.0,286046998.2,N
1623290555.9,286046998.2,N
1623290575.8,286047000.3,N
1623290595.6,286047000.2,N
1623290615.4,286047000.4,N
1623290635.3,286046999.9,N
1623290655.1,286047001.1,N
1623290675.9,286047000.8,N
1623290695.7,286046998.1,N
1623290715.5,286047000.2,N
1623290735.4,286047002.8,N
1623290755.2,286047000.9,N
1623290775.0,286047000.2,N
1623290775.9,286047000.2,N
1623290795.8,286047001.9,N
1623290815.6,286047000.0,N
1623290835.5,286047000.3,N
1623290855.3,286046999.9,N
1623290875.1,286047000.8,N
1623290895.9,286046999.7,N
1623290915.7,286047000.2,N
1623290935.5,286047002.6,N
1623290955.4,286047000.2,N
1623290975.2,286047000.0,N
1623290995.1,286047000.5,N
1623290996.0,286047000.5,N
1623291015.8,286047000.1,N
1623291035.6,286047002.2,N
1623291055.5,286046999.7,N
1623291075.3,286046999.7,N
1623291095.1,286047001.6,N
1623291115.9,286046999.8,N
1623291135.7,286047001.5,N
1623291155.6,286047004.3,Y
1623291175.4,286047001.8,P
1623291195.2,286047002.7,P
1623291215.1,286047004.0,P
1623291216.0,286047004.0,Y
1623291235.8,286047000.7,P
1623291255.7,286047000.1,N
1623291275.5,286047000.5,N
1623291295.3,286047001.0,N
1623291315.2,286047000.3,N
1623291335.0,286047002.4,Y
1623291335.9,286047002.4,P
1623291355.8,286046999.8,N
1623291375.6,286046999.9,N
1623291395.4,286047000.3,N
1623291415.3,286047001.2,N
1623291435.1,286046998.5,N
1623291455.8,286046999.6,N
1623291475.7,286046998.9,N
1623291495.5,286046999.4,N
1623291515.4,286047001.2,N
1623291535.2,286046999.0,N
1623291555.0,286046998.6,N
1623291555.9,286046998.6,N
1623291575.8,286047000.2,N
1623291595.6,286047000.7,N
1623291615.4,286046998.2,N
1623291635.3,286046999.3,N
1623291655.1,286047000.5,N
1623291675.9,286046998.5,N
1623291695.7,286046999.0,N
1623291715.5,286046996.9,N
1623291735.4,286046997.7,N
1623291755.2,286046997.0,N
1623291775.0,286046997.5,N
1623291775.9,286046997.5,N
1623291795.8,286046995.1,Y
1623291815.6,286046997.8,P
1623291835.5,286046997.4,P
1623291855.3,286046997.7,N
1623291875.1,286046996.5,Y
1623291895.9,286047000.3,P
1623291915.7,286047000.4,N
1623291935.6,286047002.8,N
1623291955.4,286047000.9,N
1623291975.2,286047001.0,N
1623291995.1,286047000.7,N
1623291996.0,286047000.7,N
1623292015.8,286047001.0,N
1623292035.6,286047001.2,N
1623292055.5,286046998.3,N
1623292075.3,286047000.7,N
1623292095.1,286046998.5,N
1623292115.9,286046998.2,N
1623292135.7,286046998.4,N
1623292155.6,286047000.8,N
1623292175.4,286047001.1,N
1623292195.2,286047001.1,N
1623292215.1,286047001.1,N
1623292216.0,286047001.1,N
1623292235.8,286046998.5,N
1623292255.6,286046998.2,N
1623292275.5,286046998.3,N
1623292295.3,286046998.8,N
1623292315.2,286047001.2,N
1623292335.9,286047000.7,N
1623292355.7,286046998.6,N
1623292375.6,286047000.9,N
1623292395.4,286046999.4,N
1623292415.3,286046997.5,N
1623292435.1,286046996.8,N
1623292436.0,286046996.8,N
1623292455.8,286046996.5,N
1623292475.7,286046997.0,N
1623292495.5,286046997.8,N
1623292515.4,286046997.9,N
1623292535.2,286046995.3,N
1623292555.0,286046995.5,N
1623292555.9,286046995.5,N
1623292575.8,286046995.1,N
1623292595.6,286046995.0,N
1623292615.4,286046997.8,N
1623292635.3,286046996.7,N
1623292655.1,286046996.6,N
1623292675.9,286046997.7,N
1623292695.7,286046997.5,N
1623292715.5,286046997.4,N
1623292735.4,286046995.3,N
1623292755.2,286046995.7,N
1623292775.1,286046995.2,N
1623292776.0,286046995.2,N
1623292795.8,286046993.8,Y
1623292815.6,286046995.3,P
1623292835.5,286046997.1,N
1623292855.3,286046997.3,P
1623292875.2,286046999.6,N
1623292895.9,286046996.7,N
1623292915.7,286046995.4,Y
1623292935.6,286046999.5,P
1623292955.4,286046999.6,N
1623292975.3,286046999.1,N
1623292995.1,286046996.7,Y
1623292996.0,286046996.7,P
1623293015.8,286046999.1,N
1623293035.7,286046997.5,N
1623293055.5,286046995.2,Y
1623293075.3,286046998.8,P
1623293095.2,286046999.1,N
1623293115.0,286046998.3,P
1623293115.9,286046998.3,Y
1623293135.8,286047002.8,P
1623293155.6,286047001.7,N
1623293175.4,286047003.9,N
1623293195.3,286047003.7,N
1623293215.1,286047004.3,N
1623293235.9,286047004.4,N
1623293255.7,286047003.1,N
1623293275.5,286047005.5,Y
1623293295.4,286047000.7,P
1623293315.2,286047000.1,N
1623293335.0,286046999.8,N
1623293335.9,286046999.8,N
1623293355.8,286046999.9,N
1623293375.6,286047002.4,N
1623293395.5,286047000.5,N
1623293415.3,286047000.2,N
1623293435.1,286047000.4,N
1623293455.9,286046999.8,N
1623293475.7,286047002.1,N
1623293495.5,286047000.1,N
1623293515.4,286047002.4,N
1623293535.2,286047002.3,N
1623293555.0,286047001.8,N
1623293556.0,286047001.8,N
1623293575.8,286047004.4,Y
1623293595.6,286047003.2,P
1623293615.5,286047002.1,N
1623293635.3,286047000.5,N
1623293655.1,286047001.9,N
1623293675.9,286047002.2,N
1623293695.7,286047002.6,N
1623293715.6,286047004.2,Y
1623293735.4,286047002.0,P
1623293755.2,286046999.8,P
1623293775.1,286047000.7,N
1623293776.0,286047000.7,N
1623293795.8,286047001.1,N
1623293815.6,286047000.6,N
1623293835.5,286047000.5,N
1623293855.3,286047000.0,N
1623293875.2,286047002.7,Y
1623293895.9,286046998.5,P
1623293915.7,286046999.8,N
1623293935.6,286047000.3,N
1623293955.4,286047000.3,N
1623293975.2,286047002.5,Y
1623293995.1,286047001.7,P
1623293996.0,286047001.7,N
